,,,PA_Meas_PMT16A,,PR_Meas_QMR101_102,,RH_Meas_QMH101,,SR_Meas_QMS101,,TA_Meas_QMH101,,GenWind,,GenWind,
date,time,status,PA,status,PR,status,RH,status,SR,status,TA,status,DirAvg,status,SpdAvg,
2010-12-13, 00:00:05,VALID,1007.66,VALID,0,VALID,102.498,VALID,0.105969,VALID,24.5691,VALID,317,VALID,0,
2010-12-13, 00:01:05,VALID,1007.66,VALID,0,VALID,102.467,VALID,0.105969,VALID,24.5691,VALID,317,VALID,0,
2010-12-13, 00:02:05,VALID,1007.66,VALID,0,VALID,102.521,VALID,0,VALID,24.5691,VALID,317,VALID,0,
2010-12-13, 00:03:05,VALID,1007.6,VALID,0,VALID,102.498,VALID,0.105969,VALID,24.5691,VALID,317,VALID,0,
2010-12-13, 00:04:05,VALID,1007.61,VALID,0,VALID,102.467,VALID,0.105969,VALID,24.5691,VALID,317,VALID,0,
2010-12-13, 00:05:05,VALID,1007.61,VALID,0,VALID,102.36,VALID,0.105969,VALID,24.5496,VALID,317,VALID,0,
2010-12-13, 00:06:05,VALID,1007.59,VALID,0,VALID,102.368,VALID,0,VALID,24.5496,VALID,317,VALID,0,
2010-12-13, 00:07:05,VALID,1007.6,VALID,0,VALID,102.437,VALID,0.105969,VALID,24.5905,VALID,317,VALID,0,
2010-12-13, 00:08:05,VALID,1007.6,VALID,0,VALID,102.475,VALID,0,VALID,24.5515,VALID,317,VALID,0,
2010-12-13, 00:09:05,VALID,1007.59,VALID,0,VALID,102.475,VALID,0.105969,VALID,24.5496,VALID,317,VALID,0,
2010-12-13, 00:10:05,VALID,1007.6,VALID,0,VALID,102.475,VALID,0,VALID,24.5301,VALID,317,VALID,0,
2010-12-13, 00:11:05,VALID,1007.57,VALID,0,VALID,102.406,VALID,0.105969,VALID,24.5301,VALID,317,VALID,0,
2010-12-13, 00:12:05,VALID,1007.56,VALID,0,VALID,102.345,VALID,0.105969,VALID,24.5106,VALID,317,VALID,0,
2010-12-13, 00:13:05,VALID,1007.52,VALID,0,VALID,102.353,VALID,0,VALID,24.5106,VALID,317,VALID,0,
2010-12-13, 00:14:05,VALID,1007.52,VALID,0,VALID,102.345,VALID,0.105969,VALID,24.5125,VALID,317,VALID,0,
2010-12-13, 00:15:05,VALID,1007.51,VALID,0,VALID,102.399,VALID,0,VALID,24.5106,VALID,317,VALID,0,
2010-12-13, 00:16:05,VALID,1007.49,VALID,0,VALID,102.46,VALID,0.105969,VALID,24.532,VALID,317,VALID,0,
2010-12-13, 00:17:05,VALID,1007.47,VALID,0,VALID,102.551,VALID,0,VALID,24.5106,VALID,317,VALID,0,
2010-12-13, 00:18:05,VALID,1007.44,VALID,0,VALID,102.574,VALID,0.105969,VALID,24.532,VALID,317,VALID,0,
2010-12-13, 00:19:05,VALID,1007.43,VALID,0,VALID,102.574,VALID,0.105969,VALID,24.4911,VALID,317,VALID,0,
2010-12-13, 00:20:05,VALID,1007.42,VALID,0,VALID,102.528,VALID,0,VALID,24.4911,VALID,317,VALID,0,
2010-12-13, 00:21:05,VALID,1007.41,VALID,0,VALID,102.551,VALID,0.105969,VALID,24.4911,VALID,317,VALID,0,
2010-12-13, 00:22:05,VALID,1007.42,VALID,0,VALID,102.589,VALID,0.105969,VALID,24.532,VALID,317,VALID,0,
2010-12-13, 00:23:05,VALID,1007.4,VALID,0,VALID,102.582,VALID,0,VALID,24.4911,VALID,317,VALID,0,
2010-12-13, 00:24:05,VALID,1007.4,VALID,0,VALID,102.559,VALID,0,VALID,24.5125,VALID,317,VALID,0,
2010-12-13, 00:25:04,VALID,1007.4,VALID,0,VALID,102.574,VALID,0.105969,VALID,24.4911,VALID,317,VALID,0,
2010-12-13, 00:26:04,VALID,1007.42,VALID,0,VALID,102.589,VALID,0,VALID,24.5106,VALID,317,VALID,0,
2010-12-13, 00:27:04,VALID,1007.38,VALID,0,VALID,102.658,VALID,0,VALID,24.532,VALID,317,VALID,0,
2010-12-13, 00:28:04,VALID,1007.38,VALID,0,VALID,102.658,VALID,0.105969,VALID,24.4911,VALID,317,VALID,0,
2010-12-13, 00:29:04,VALID,1007.38,VALID,0,VALID,102.688,VALID,0.105969,VALID,24.4911,VALID,317,VALID,0,
2010-12-13, 00:30:04,VALID,1007.37,VALID,0,VALID,102.605,VALID,0.105969,VALID,24.4717,VALID,317,VALID,0,
2010-12-13, 00:31:04,VALID,1007.36,VALID,0,VALID,102.505,VALID,0,VALID,24.4717,VALID,317,VALID,0,
2010-12-13, 00:32:04,VALID,1007.36,VALID,0,VALID,102.368,VALID,0,VALID,24.4717,VALID,317,VALID,0,
2010-12-13, 00:33:04,VALID,1007.38,VALID,0,VALID,102.429,VALID,0,VALID,24.493,VALID,317,VALID,0,
2010-12-13, 00:34:04,VALID,1007.38,VALID,0,VALID,102.528,VALID,0,VALID,24.4717,VALID,317,VALID,0,
2010-12-13, 00:35:04,VALID,1007.4,VALID,0,VALID,102.551,VALID,0,VALID,24.4735,VALID,317,VALID,0,
2010-12-13, 00:36:04,VALID,1007.41,VALID,0,VALID,102.65,VALID,0.105969,VALID,24.493,VALID,317,VALID,0,
2010-12-13, 00:37:04,VALID,1007.37,VALID,0,VALID,102.681,VALID,0,VALID,24.4522,VALID,317,VALID,0,
2010-12-13, 00:38:04,VALID,1007.41,VALID,0,VALID,102.719,VALID,0,VALID,24.4522,VALID,317,VALID,0,
2010-12-13, 00:39:04,VALID,1007.42,VALID,0,VALID,102.719,VALID,0,VALID,24.4735,VALID,317,VALID,0,
2010-12-13, 00:40:04,VALID,1007.45,VALID,0,VALID,102.612,VALID,0,VALID,24.4345,VALID,317,VALID,0,
2010-12-13, 00:41:04,VALID,1007.42,VALID,0,VALID,102.521,VALID,0,VALID,24.4345,VALID,317,VALID,0,
2010-12-13, 00:42:04,VALID,1007.44,VALID,0,VALID,102.505,VALID,0,VALID,24.4345,VALID,317,VALID,0,
2010-12-13, 00:43:04,VALID,1007.44,VALID,0,VALID,102.605,VALID,0.105969,VALID,24.454,VALID,317,VALID,0,
2010-12-13, 00:44:04,VALID,1007.44,VALID,0,VALID,102.62,VALID,0.105969,VALID,24.454,VALID,317,VALID,0,
2010-12-13, 00:45:04,VALID,1007.41,VALID,0,VALID,102.627,VALID,0.105969,VALID,24.4327,VALID,317,VALID,0,
2010-12-13, 00:46:04,VALID,1007.42,VALID,0,VALID,102.612,VALID,0,VALID,24.4327,VALID,317,VALID,0,
2010-12-13, 00:47:04,VALID,1007.41,VALID,0,VALID,102.589,VALID,0.105969,VALID,24.4132,VALID,317,VALID,0,
2010-12-13, 00:48:04,VALID,1007.4,VALID,0,VALID,102.589,VALID,0.105969,VALID,24.4132,VALID,317,VALID,0,
2010-12-13, 00:49:04,VALID,1007.39,VALID,0,VALID,102.643,VALID,0.105969,VALID,24.4132,VALID,317,VALID,0,
2010-12-13, 00:50:04,VALID,1007.36,VALID,0,VALID,102.719,VALID,0,VALID,24.4345,VALID,317,VALID,0,
2010-12-13, 00:51:04,VALID,1007.36,VALID,0,VALID,102.795,VALID,0,VALID,24.454,VALID,317,VALID,0,
2010-12-13, 00:52:04,VALID,1007.34,VALID,0,VALID,102.803,VALID,0,VALID,24.4132,VALID,317,VALID,0,
2010-12-13, 00:53:04,VALID,1007.31,VALID,0,VALID,102.826,VALID,0.105969,VALID,24.454,VALID,317,VALID,0,
2010-12-13, 00:54:04,VALID,1007.27,VALID,0,VALID,102.818,VALID,0,VALID,24.4327,VALID,317,VALID,0,
2010-12-13, 00:55:04,VALID,1007.27,VALID,0,VALID,102.719,VALID,0.105969,VALID,24.4345,VALID,317,VALID,0,
2010-12-13, 00:56:04,VALID,1007.25,VALID,0,VALID,102.574,VALID,0,VALID,24.3937,VALID,317,VALID,0,
2010-12-13, 00:57:04,VALID,1007.27,VALID,0,VALID,102.498,VALID,0,VALID,24.3937,VALID,317,VALID,0,
2010-12-13, 00:58:04,VALID,1007.23,VALID,0,VALID,102.444,VALID,0,VALID,24.3937,VALID,317,VALID,0,
2010-12-13, 00:59:04,VALID,1007.21,VALID,0,VALID,102.437,VALID,0.105969,VALID,24.3937,VALID,317,VALID,0,
2010-12-13, 01:00:04,VALID,1007.2,VALID,0,VALID,102.421,VALID,0,VALID,24.3956,VALID,317,VALID,0,
2010-12-13, 01:01:04,VALID,1007.21,VALID,0,VALID,102.49,VALID,0,VALID,24.3742,VALID,317,VALID,0,
2010-12-13, 01:02:04,VALID,1007.2,VALID,0,VALID,102.559,VALID,0,VALID,24.3742,VALID,317,VALID,0,
2010-12-13, 01:03:04,VALID,1007.17,VALID,0,VALID,102.612,VALID,0.105969,VALID,24.3547,VALID,317,VALID,0,
2010-12-13, 01:04:04,VALID,1007.17,VALID,0,VALID,102.681,VALID,0,VALID,24.3547,VALID,317,VALID,0,
2010-12-13, 01:05:04,VALID,1007.16,VALID,0,VALID,102.734,VALID,0,VALID,24.3352,VALID,317,VALID,0,
2010-12-13, 01:06:04,VALID,1007.15,VALID,0,VALID,102.795,VALID,0,VALID,24.3352,VALID,317,VALID,0,
2010-12-13, 01:07:04,VALID,1007.15,VALID,0,VALID,102.833,VALID,0.105969,VALID,24.3352,VALID,317,VALID,0,
2010-12-13, 01:08:04,VALID,1007.13,VALID,0,VALID,102.94,VALID,0.105969,VALID,24.3352,VALID,317,VALID,0,
2010-12-13, 01:09:04,VALID,1007.15,VALID,0,VALID,102.993,VALID,0,VALID,24.3352,VALID,317,VALID,0,
2010-12-13, 01:10:04,VALID,1007.16,VALID,0,VALID,103.047,VALID,0.105969,VALID,24.3158,VALID,317,VALID,0,
2010-12-13, 01:11:04,VALID,1007.16,VALID,0,VALID,103.054,VALID,0.105969,VALID,24.3158,VALID,317,VALID,0,
2010-12-13, 01:12:04,VALID,1007.15,VALID,0,VALID,103.077,VALID,0.105969,VALID,24.3371,VALID,317,VALID,0,
2010-12-13, 01:13:04,VALID,1007.15,VALID,0,VALID,103.077,VALID,0,VALID,24.3158,VALID,317,VALID,0,
2010-12-13, 01:14:04,VALID,1007.15,VALID,0,VALID,103.085,VALID,0,VALID,24.3371,VALID,317,VALID,0,
2010-12-13, 01:15:04,VALID,1007.14,VALID,0,VALID,103.039,VALID,0,VALID,24.3158,VALID,317,VALID,0,
2010-12-13, 01:16:04,VALID,1007.11,VALID,0,VALID,103.047,VALID,0,VALID,24.3352,VALID,317,VALID,0,
2010-12-13, 01:17:04,VALID,1007.12,VALID,0,VALID,103.054,VALID,0,VALID,24.3352,VALID,317,VALID,0,
2010-12-13, 01:18:04,VALID,1007.12,VALID,0,VALID,103.062,VALID,0,VALID,24.3761,VALID,317,VALID,0,
2010-12-13, 01:19:04,VALID,1007.1,VALID,0,VALID,103.047,VALID,0.105969,VALID,24.3547,VALID,317,VALID,0,
2010-12-13, 01:20:04,VALID,1007.08,VALID,0,VALID,103.009,VALID,0,VALID,24.3547,VALID,317,VALID,0,
2010-12-13, 01:21:04,VALID,1007.06,VALID,0,VALID,103.009,VALID,0.105969,VALID,24.3547,VALID,317,VALID,0,
2010-12-13, 01:22:04,VALID,1007.05,VALID,0,VALID,102.955,VALID,0.105969,VALID,24.3547,VALID,317,VALID,0,
2010-12-13, 01:23:04,VALID,1007.04,VALID,0,VALID,102.94,VALID,0,VALID,24.3547,VALID,317,VALID,0,
2010-12-13, 01:24:04,VALID,1007.04,VALID,0,VALID,102.963,VALID,0.105969,VALID,24.3352,VALID,317,VALID,0,
2010-12-13, 01:25:04,VALID,1007.06,VALID,0,VALID,102.986,VALID,0,VALID,24.3352,VALID,317,VALID,0,
2010-12-13, 01:26:04,VALID,1007,VALID,0,VALID,102.971,VALID,0.105969,VALID,24.3158,VALID,317,VALID,0,
2010-12-13, 01:27:04,VALID,1007.02,VALID,0,VALID,103.001,VALID,0.105969,VALID,24.2963,VALID,317,VALID,0,
2010-12-13, 01:28:04,VALID,1007.01,VALID,0,VALID,102.986,VALID,0,VALID,24.2981,VALID,317,VALID,0,
2010-12-13, 01:29:04,VALID,1007,VALID,0,VALID,102.993,VALID,0,VALID,24.2981,VALID,317,VALID,0,
2010-12-13, 01:30:04,VALID,1007.01,VALID,0,VALID,103.009,VALID,0,VALID,24.2768,VALID,317,VALID,0,
2010-12-13, 01:31:04,VALID,1007.05,VALID,0,VALID,102.986,VALID,0.105969,VALID,24.2768,VALID,317,VALID,0,
2010-12-13, 01:32:04,VALID,1007.04,VALID,0,VALID,103.001,VALID,0.105969,VALID,24.2378,VALID,317,VALID,0,
2010-12-13, 01:33:04,VALID,1007.04,VALID,0,VALID,103.047,VALID,0,VALID,24.2591,VALID,317,VALID,0,
2010-12-13, 01:34:04,VALID,1007.03,VALID,0,VALID,103.085,VALID,0.105969,VALID,24.2378,VALID,317,VALID,0,
2010-12-13, 01:35:04,VALID,1007.08,VALID,0,VALID,103.131,VALID,0.105969,VALID,24.2183,VALID,317,VALID,0,
2010-12-13, 01:36:04,VALID,1007.07,VALID,0,VALID,103.161,VALID,0,VALID,24.2396,VALID,317,VALID,0,
2010-12-13, 01:37:04,VALID,1007.04,VALID,0,VALID,103.154,VALID,0.105969,VALID,24.2202,VALID,317,VALID,0,
2010-12-13, 01:38:04,VALID,1007.05,VALID,0,VALID,103.131,VALID,0.105969,VALID,24.1988,VALID,317,VALID,0,
2010-12-13, 01:39:04,VALID,1007.06,VALID,0,VALID,103.161,VALID,0,VALID,24.1988,VALID,317,VALID,0,
2010-12-13, 01:40:04,VALID,1007.01,VALID,0,VALID,103.169,VALID,0.105969,VALID,24.1793,VALID,317,VALID,0,
2010-12-13, 01:41:04,VALID,1006.98,VALID,0,VALID,103.199,VALID,0,VALID,24.1988,VALID,317,VALID,0,
2010-12-13, 01:42:04,VALID,1006.98,VALID,0,VALID,103.245,VALID,0,VALID,24.1988,VALID,317,VALID,0,
2010-12-13, 01:43:04,VALID,1006.97,VALID,0,VALID,103.245,VALID,0.105969,VALID,24.1793,VALID,317,VALID,0,
2010-12-13, 01:44:04,VALID,1006.97,VALID,0,VALID,103.245,VALID,0,VALID,24.2007,VALID,317,VALID,0,
2010-12-13, 01:45:04,VALID,1006.96,VALID,0,VALID,103.23,VALID,0.105969,VALID,24.1599,VALID,317,VALID,0,
2010-12-13, 01:46:04,VALID,1006.97,VALID,0,VALID,103.26,VALID,0,VALID,24.1599,VALID,317,VALID,0,
2010-12-13, 01:47:04,VALID,1006.97,VALID,0,VALID,103.298,VALID,0.105969,VALID,24.1599,VALID,317,VALID,0,
2010-12-13, 01:48:04,VALID,1006.96,VALID,0,VALID,103.352,VALID,0.105969,VALID,24.1599,VALID,317,VALID,0,
2010-12-13, 01:49:04,VALID,1006.96,VALID,0,VALID,103.398,VALID,0,VALID,24.1599,VALID,317,VALID,0,
2010-12-13, 01:50:04,VALID,1006.91,VALID,0,VALID,103.428,VALID,0.105969,VALID,24.1422,VALID,317,VALID,0,
2010-12-13, 01:51:04,VALID,1006.89,VALID,0,VALID,103.459,VALID,0,VALID,24.1422,VALID,317,VALID,0,
2010-12-13, 01:52:04,VALID,1006.88,VALID,0,VALID,103.474,VALID,0.105969,VALID,24.1014,VALID,317,VALID,0,
2010-12-13, 01:53:04,VALID,1006.84,VALID,0,VALID,103.504,VALID,0,VALID,24.1014,VALID,317,VALID,0,
2010-12-13, 01:54:04,VALID,1006.83,VALID,0,VALID,103.474,VALID,0.105969,VALID,24.1032,VALID,317,VALID,0,
2010-12-13, 01:55:04,VALID,1006.82,VALID,0,VALID,103.504,VALID,0.105969,VALID,24.0819,VALID,317,VALID,0,
2010-12-13, 01:56:04,VALID,1006.8,VALID,0,VALID,103.512,VALID,0,VALID,24.0624,VALID,317,VALID,0,
2010-12-13, 01:57:04,VALID,1006.79,VALID,0,VALID,103.52,VALID,0.105969,VALID,24.0624,VALID,317,VALID,0,
2010-12-13, 01:58:04,VALID,1006.77,VALID,0,VALID,103.52,VALID,0.105969,VALID,24.0429,VALID,317,VALID,0,
2010-12-13, 01:59:04,VALID,1006.79,VALID,0,VALID,103.527,VALID,0,VALID,24.0429,VALID,317,VALID,0,
2010-12-13, 02:00:04,VALID,1006.81,VALID,0,VALID,103.542,VALID,0.105969,VALID,24.0235,VALID,317,VALID,0,
2010-12-13, 02:01:04,VALID,1006.79,VALID,0,VALID,103.565,VALID,0.105969,VALID,24.0448,VALID,317,VALID,0,
2010-12-13, 02:02:04,VALID,1006.8,VALID,0,VALID,103.565,VALID,0.105969,VALID,24.0235,VALID,317,VALID,0,
2010-12-13, 02:03:04,VALID,1006.79,VALID,0,VALID,103.596,VALID,0.105969,VALID,24.0235,VALID,317,VALID,0,
2010-12-13, 02:04:04,VALID,1006.81,VALID,0,VALID,103.611,VALID,0.105969,VALID,24.0253,VALID,317,VALID,0,
2010-12-13, 02:05:04,VALID,1006.77,VALID,0,VALID,103.634,VALID,0.105969,VALID,24.004,VALID,317,VALID,0,
2010-12-13, 02:06:04,VALID,1006.8,VALID,0,VALID,103.642,VALID,0.105969,VALID,24.004,VALID,317,VALID,0,
2010-12-13, 02:07:04,VALID,1006.76,VALID,0,VALID,103.649,VALID,0.105969,VALID,23.965,VALID,317,VALID,0,
2010-12-13, 02:08:04,VALID,1006.75,VALID,0,VALID,103.649,VALID,0.105969,VALID,23.965,VALID,317,VALID,0,
2010-12-13, 02:09:04,VALID,1006.74,VALID,0,VALID,103.672,VALID,0,VALID,23.9668,VALID,317,VALID,0,
2010-12-13, 02:10:04,VALID,1006.74,VALID,0,VALID,103.68,VALID,0,VALID,23.9668,VALID,317,VALID,0,
2010-12-13, 02:11:04,VALID,1006.72,VALID,0,VALID,103.687,VALID,0,VALID,23.9668,VALID,317,VALID,0,
2010-12-13, 02:12:04,VALID,1006.74,VALID,0,VALID,103.695,VALID,0,VALID,23.9473,VALID,317,VALID,0,
2010-12-13, 02:13:04,VALID,1006.74,VALID,0,VALID,103.687,VALID,0,VALID,23.9686,VALID,317,VALID,0,
2010-12-13, 02:14:04,VALID,1006.74,VALID,0,VALID,103.672,VALID,0,VALID,23.9491,VALID,317,VALID,0,
2010-12-13, 02:15:04,VALID,1006.75,VALID,0,VALID,103.68,VALID,0,VALID,23.9278,VALID,317,VALID,0,
2010-12-13, 02:16:04,VALID,1006.72,VALID,0,VALID,103.687,VALID,0,VALID,23.9491,VALID,317,VALID,0,
2010-12-13, 02:17:04,VALID,1006.76,VALID,0,VALID,103.687,VALID,0,VALID,23.9297,VALID,317,VALID,0,
2010-12-13, 02:18:04,VALID,1006.76,VALID,0,VALID,103.672,VALID,0,VALID,23.9084,VALID,317,VALID,0,
2010-12-13, 02:19:04,VALID,1006.77,VALID,0,VALID,103.695,VALID,0,VALID,23.9084,VALID,317,VALID,0,
2010-12-13, 02:20:04,VALID,1006.72,VALID,0,VALID,103.71,VALID,0,VALID,23.8889,VALID,317,VALID,0,
2010-12-13, 02:21:04,VALID,1006.72,VALID,0,VALID,103.718,VALID,0,VALID,23.8889,VALID,317,VALID,0,
2010-12-13, 02:22:04,VALID,1006.73,VALID,0,VALID,103.726,VALID,0,VALID,23.8889,VALID,317,VALID,0,
2010-12-13, 02:23:04,VALID,1006.71,VALID,0,VALID,103.703,VALID,0,VALID,23.8889,VALID,317,VALID,0,
2010-12-13, 02:24:04,VALID,1006.7,VALID,0,VALID,103.741,VALID,0,VALID,23.8889,VALID,317,VALID,0,
2010-12-13, 02:25:04,VALID,1006.68,VALID,0,VALID,103.748,VALID,0,VALID,23.9102,VALID,317,VALID,0,
2010-12-13, 02:26:04,VALID,1006.67,VALID,0,VALID,103.756,VALID,0,VALID,23.8694,VALID,317,VALID,0,
2010-12-13, 02:27:04,VALID,1006.67,VALID,0,VALID,103.756,VALID,0,VALID,23.8694,VALID,317,VALID,0,
2010-12-13, 02:28:04,VALID,1006.67,VALID,0,VALID,103.764,VALID,0,VALID,23.8694,VALID,317,VALID,0,
2010-12-13, 02:29:04,VALID,1006.7,VALID,0,VALID,103.764,VALID,0,VALID,23.8694,VALID,317,VALID,0,
2010-12-13, 02:30:04,VALID,1006.7,VALID,0,VALID,103.771,VALID,0,VALID,23.8907,VALID,317,VALID,0,
2010-12-13, 02:31:04,VALID,1006.73,VALID,0,VALID,103.756,VALID,0,VALID,23.8907,VALID,317,VALID,0,
2010-12-13, 02:32:04,VALID,1006.74,VALID,0,VALID,103.756,VALID,0,VALID,23.8907,VALID,317,VALID,0,
2010-12-13, 02:33:04,VALID,1006.74,VALID,0,VALID,103.787,VALID,0,VALID,23.8889,VALID,317,VALID,0.00351562,
2010-12-13, 02:34:04,VALID,1006.77,VALID,0,VALID,103.802,VALID,0,VALID,23.9084,VALID,10,VALID,0.292188,
2010-12-13, 02:35:04,VALID,1006.81,VALID,0,VALID,103.802,VALID,0,VALID,23.9297,VALID,10,VALID,0,
2010-12-13, 02:36:04,VALID,1006.86,VALID,0,VALID,103.802,VALID,0,VALID,23.9278,VALID,10,VALID,0,
2010-12-13, 02:37:04,VALID,1006.86,VALID,0,VALID,103.779,VALID,0,VALID,23.9278,VALID,10,VALID,0,
2010-12-13, 02:38:04,VALID,1006.86,VALID,0,VALID,103.733,VALID,0,VALID,23.9278,VALID,10,VALID,0.0351563,
2010-12-13, 02:39:04,VALID,1006.85,VALID,0,VALID,103.703,VALID,0.105969,VALID,23.9455,VALID,10,VALID,0,
2010-12-13, 02:40:04,VALID,1006.82,VALID,0,VALID,103.664,VALID,0.105969,VALID,23.965,VALID,10,VALID,0,
2010-12-13, 02:41:04,VALID,1006.8,VALID,0,VALID,103.611,VALID,0.105969,VALID,23.9455,VALID,10,VALID,0,
2010-12-13, 02:42:04,VALID,1006.82,VALID,0,VALID,103.558,VALID,0.105969,VALID,23.965,VALID,65,VALID,0.474219,
2010-12-13, 02:43:04,VALID,1006.81,VALID,0,VALID,103.497,VALID,0.105969,VALID,23.965,VALID,65,VALID,0,
2010-12-13, 02:44:04,VALID,1006.8,VALID,0,VALID,103.436,VALID,0.105969,VALID,23.965,VALID,65,VALID,0,
2010-12-13, 02:45:04,VALID,1006.81,VALID,0,VALID,103.413,VALID,0.105969,VALID,23.965,VALID,65,VALID,0,
2010-12-13, 02:46:04,VALID,1006.78,VALID,0,VALID,103.382,VALID,0.105969,VALID,23.9455,VALID,65,VALID,0.00234375,
2010-12-13, 02:47:04,VALID,1006.76,VALID,0,VALID,103.398,VALID,0.105969,VALID,23.926,VALID,65,VALID,0.152734,
2010-12-13, 02:48:04,VALID,1006.75,VALID,0,VALID,103.413,VALID,0.211938,VALID,23.926,VALID,65,VALID,0.0132813,
2010-12-13, 02:49:04,VALID,1006.72,VALID,0,VALID,103.428,VALID,0.105969,VALID,23.9278,VALID,65,VALID,0,
2010-12-13, 02:50:04,VALID,1006.73,VALID,0,VALID,103.428,VALID,0.105969,VALID,23.9065,VALID,65,VALID,0,
2010-12-13, 02:51:04,VALID,1006.73,VALID,0,VALID,103.405,VALID,0.105969,VALID,23.9065,VALID,65,VALID,0,
2010-12-13, 02:52:04,VALID,1006.74,VALID,0,VALID,103.413,VALID,0.105969,VALID,23.8871,VALID,65,VALID,0,
2010-12-13, 02:53:04,VALID,1006.75,VALID,0,VALID,103.428,VALID,0.105969,VALID,23.8889,VALID,65,VALID,0,
2010-12-13, 02:54:04,VALID,1006.74,VALID,0,VALID,103.466,VALID,0.105969,VALID,23.8481,VALID,65,VALID,0,
2010-12-13, 02:55:04,VALID,1006.77,VALID,0,VALID,103.497,VALID,0.105969,VALID,23.8481,VALID,65,VALID,0,
2010-12-13, 02:56:04,VALID,1006.74,VALID,0,VALID,103.535,VALID,0.105969,VALID,23.8286,VALID,65,VALID,0,
2010-12-13, 02:57:04,VALID,1006.73,VALID,0,VALID,103.542,VALID,0.105969,VALID,23.8286,VALID,65,VALID,0,
2010-12-13, 02:58:04,VALID,1006.71,VALID,0,VALID,103.558,VALID,0.105969,VALID,23.8499,VALID,65,VALID,0,
2010-12-13, 02:59:04,VALID,1006.73,VALID,0,VALID,103.581,VALID,0.105969,VALID,23.8481,VALID,65,VALID,0,
2010-12-13, 03:00:04,VALID,1006.7,VALID,0,VALID,103.596,VALID,0.105969,VALID,23.8481,VALID,65,VALID,0,
2010-12-13, 03:01:04,VALID,1006.69,VALID,0,VALID,103.596,VALID,0.105969,VALID,23.8676,VALID,65,VALID,0.00585938,
2010-12-13, 03:02:04,VALID,1006.71,VALID,0,VALID,103.619,VALID,0.105969,VALID,23.8481,VALID,65,VALID,0,
2010-12-13, 03:03:04,VALID,1006.71,VALID,0,VALID,103.581,VALID,0.105969,VALID,23.8676,VALID,65,VALID,0,
2010-12-13, 03:04:04,VALID,1006.7,VALID,0,VALID,103.565,VALID,0.105969,VALID,23.8676,VALID,65,VALID,0,
2010-12-13, 03:05:04,VALID,1006.7,VALID,0,VALID,103.558,VALID,0.211938,VALID,23.8481,VALID,65,VALID,0,
2010-12-13, 03:06:04,VALID,1006.71,VALID,0,VALID,103.565,VALID,0.105969,VALID,23.8676,VALID,65,VALID,0,
2010-12-13, 03:07:04,VALID,1006.69,VALID,0,VALID,103.588,VALID,0.105969,VALID,23.8676,VALID,65,VALID,0,
2010-12-13, 03:08:04,VALID,1006.7,VALID,0,VALID,103.573,VALID,0.105969,VALID,23.8481,VALID,65,VALID,0,
2010-12-13, 03:09:04,VALID,1006.7,VALID,0,VALID,103.581,VALID,0.105969,VALID,23.8676,VALID,65,VALID,0,
2010-12-13, 03:10:04,VALID,1006.7,VALID,0,VALID,103.588,VALID,0.105969,VALID,23.8481,VALID,65,VALID,0,
2010-12-13, 03:11:04,VALID,1006.71,VALID,0,VALID,103.573,VALID,0.105969,VALID,23.8481,VALID,65,VALID,0,
2010-12-13, 03:12:04,VALID,1006.73,VALID,0,VALID,103.573,VALID,0.105969,VALID,23.8286,VALID,65,VALID,0,
2010-12-13, 03:13:04,VALID,1006.71,VALID,0,VALID,103.565,VALID,0.105969,VALID,23.8286,VALID,65,VALID,0,
2010-12-13, 03:14:04,VALID,1006.69,VALID,0,VALID,103.55,VALID,0.105969,VALID,23.8286,VALID,65,VALID,0,
2010-12-13, 03:15:04,VALID,1006.67,VALID,0,VALID,103.565,VALID,0.105969,VALID,23.8286,VALID,65,VALID,0,
2010-12-13, 03:16:04,VALID,1006.64,VALID,0,VALID,103.558,VALID,0.105969,VALID,23.8286,VALID,65,VALID,0,
2010-12-13, 03:17:04,VALID,1006.62,VALID,0,VALID,103.573,VALID,0.211938,VALID,23.8073,VALID,65,VALID,0,
2010-12-13, 03:18:04,VALID,1006.64,VALID,0,VALID,103.581,VALID,0.105969,VALID,23.8091,VALID,65,VALID,0,
2010-12-13, 03:19:04,VALID,1006.62,VALID,0,VALID,103.565,VALID,0.105969,VALID,23.8286,VALID,65,VALID,0,
2010-12-13, 03:20:04,VALID,1006.63,VALID,0,VALID,103.573,VALID,0.105969,VALID,23.8091,VALID,65,VALID,0,
2010-12-13, 03:21:04,VALID,1006.62,VALID,0,VALID,103.588,VALID,0.105969,VALID,23.8286,VALID,65,VALID,0,
2010-12-13, 03:22:04,VALID,1006.58,VALID,0,VALID,103.642,VALID,0.105969,VALID,23.8091,VALID,65,VALID,0,
2010-12-13, 03:23:04,VALID,1006.57,VALID,0,VALID,103.649,VALID,0.105969,VALID,23.8073,VALID,65,VALID,0,
2010-12-13, 03:24:04,VALID,1006.57,VALID,0,VALID,103.657,VALID,0.105969,VALID,23.8304,VALID,65,VALID,0,
2010-12-13, 03:25:04,VALID,1006.58,VALID,0,VALID,103.657,VALID,0,VALID,23.8304,VALID,65,VALID,0,
2010-12-13, 03:26:04,VALID,1006.56,VALID,0,VALID,103.687,VALID,0,VALID,23.8304,VALID,65,VALID,0,
2010-12-13, 03:27:04,VALID,1006.6,VALID,0,VALID,103.726,VALID,0,VALID,23.8304,VALID,65,VALID,0,
2010-12-13, 03:28:04,VALID,1006.58,VALID,0,VALID,103.71,VALID,0,VALID,23.8304,VALID,65,VALID,0,
2010-12-13, 03:29:04,VALID,1006.6,VALID,0,VALID,103.68,VALID,0,VALID,23.8304,VALID,65,VALID,0,
2010-12-13, 03:30:04,VALID,1006.62,VALID,0,VALID,103.695,VALID,0,VALID,23.8304,VALID,65,VALID,0,
2010-12-13, 03:31:04,VALID,1006.65,VALID,0,VALID,103.687,VALID,0.105969,VALID,23.8499,VALID,65,VALID,0,
2010-12-13, 03:32:04,VALID,1006.7,VALID,0,VALID,103.687,VALID,0,VALID,23.8499,VALID,65,VALID,0,
2010-12-13, 03:33:04,VALID,1006.69,VALID,0,VALID,103.672,VALID,0,VALID,23.8694,VALID,65,VALID,0,
2010-12-13, 03:34:04,VALID,1006.71,VALID,0,VALID,103.657,VALID,0,VALID,23.8889,VALID,65,VALID,0,
2010-12-13, 03:35:04,VALID,1006.74,VALID,0,VALID,103.619,VALID,0,VALID,23.8694,VALID,65,VALID,0,
2010-12-13, 03:36:04,VALID,1006.74,VALID,0,VALID,103.588,VALID,0,VALID,23.8889,VALID,65,VALID,0,
2010-12-13, 03:37:04,VALID,1006.74,VALID,0,VALID,103.573,VALID,0,VALID,23.8889,VALID,65,VALID,0,
2010-12-13, 03:38:04,VALID,1006.79,VALID,0,VALID,103.573,VALID,0,VALID,23.9084,VALID,65,VALID,0,
2010-12-13, 03:39:04,VALID,1006.77,VALID,0,VALID,103.558,VALID,0,VALID,23.8676,VALID,65,VALID,0,
2010-12-13, 03:40:04,VALID,1006.78,VALID,0,VALID,103.535,VALID,0,VALID,23.8676,VALID,65,VALID,0,
2010-12-13, 03:41:04,VALID,1006.8,VALID,0,VALID,103.504,VALID,0,VALID,23.8889,VALID,65,VALID,0,
2010-12-13, 03:42:04,VALID,1006.81,VALID,0,VALID,103.459,VALID,0,VALID,23.8694,VALID,65,VALID,0,
2010-12-13, 03:43:04,VALID,1006.82,VALID,0,VALID,103.451,VALID,0,VALID,23.8694,VALID,65,VALID,0,
2010-12-13, 03:44:04,VALID,1006.85,VALID,0,VALID,103.428,VALID,0.105969,VALID,23.8676,VALID,65,VALID,0,
2010-12-13, 03:45:04,VALID,1006.81,VALID,0,VALID,103.42,VALID,0,VALID,23.8676,VALID,65,VALID,0,
2010-12-13, 03:46:04,VALID,1006.83,VALID,0,VALID,103.398,VALID,0,VALID,23.8871,VALID,65,VALID,0,
2010-12-13, 03:47:04,VALID,1006.81,VALID,0,VALID,103.382,VALID,0,VALID,23.8889,VALID,65,VALID,0,
2010-12-13, 03:48:04,VALID,1006.79,VALID,0,VALID,103.398,VALID,0,VALID,23.9084,VALID,65,VALID,0.0890625,
2010-12-13, 03:49:04,VALID,1006.82,VALID,0,VALID,103.375,VALID,0,VALID,23.8871,VALID,65,VALID,0,
2010-12-13, 03:50:04,VALID,1006.83,VALID,0,VALID,103.382,VALID,0,VALID,23.8676,VALID,65,VALID,0,
2010-12-13, 03:51:04,VALID,1006.87,VALID,0,VALID,103.375,VALID,0,VALID,23.8676,VALID,65,VALID,0,
2010-12-13, 03:52:04,VALID,1006.85,VALID,0,VALID,103.375,VALID,0,VALID,23.8694,VALID,65,VALID,0,